Location: S�tio Afonso Gruber
(26.1760°S, 49.5250°W)
Time: 13:26:54
(UTC+00:00)

Cosmos 1707 Rocket - Pass Details

Date: 07 June 2020
Orbit: 606 x 630 km, 82.5° (Epoch: 07 July)

Event Time Altitude Azimuth Distance (km) Brightness Sun altitude
Rises 08:43:10 0° 359° (N) 2,905 7.2 -17.0°
Reaches altitude 10° 08:45:24 10° 1° (N) 2,006 6.4 -16.6°
Maximum altitude 08:49:50 76° 86° (E) 657 3.8 -15.6°
Drops below altitude 10° 08:54:20 10° 171° (S) 2,027 6.1 -14.7°
Sets 08:56:35 0° 172° (S) 2,939 6.9 -14.2°
